Вернуться в каталог

STARLINK-30174

АктивенСвязьVLEO
NORAD 57609·PAYLOAD·🇺🇸 United States

Запущен Aug 11, 2023 с Cape Canaveral Space Force Station

Loading…

Ближайшие Пролёты (ближайшие 24 часа)

TLE

СвежийSource: CelesTrak SupGP

Эпоха: Sep 15, 2026, 02:29 UTC

1 57609C 23119H   26258.10395833  .00020152  00000+0  72961-3 0  2583
2 57609  43.0023  91.5746 0001756 277.1393 248.5067 15.27580862    11

Отслеживайте STARLINK-30174 в реальном времени с AllMySat

Download on the App Store